Location: Christianberg
(48.9086°N, 14.0209°E)
Time: 22:53:40
(UTC+00:00)

CZ-4C R/B - Pass Details

Date: 20 June 2021
Orbit: 605 x 1396 km, 63.4° (Epoch: 04 August)

Event Time Altitude Azimuth Distance (km) Brightness Sun altitude
Exits shadow 01:11:20 - 160° (SSE) 2,506 4.3 -12.4°
Reaches altitude 10° 01:12:41 10° 149° (SSE) 2,155 4.1 -12.3°
Maximum altitude 01:15:51 17° 108° (ESE) 1,823 4.1 -12.0°
Drops below altitude 10° 01:19:22 10° 68° (ENE) 2,433 5.4 -11.7°
Sets 01:22:51 0° 50° (NE) 3,537 7.0 -11.4°
